Regional Weather Roundup
Issued by NWS

Home | Current Version | Previous Version | Graphics & Text | Print | Product List | Glossary On
Versions: 1 2 3 4 5 6 7 8 9 10 11 12 13 14 15 16 17 18 19 20 21 22 23 24 25 26 27 28 29 30 31 32 33 34 35 36 37 38 39 40 41 42 43 44 45 46 47 48 49 50
000
ASUS43 KDTX 201810
RWRMI
MICHIGAN HOURLY REGIONAL WEATHER ROUNDUP
NATIONAL WEATHER SERVICE DETROIT/PONTIAC MI
200 PM EDT SUN APR 20 2014

NOTE: "FAIR" INDICATES FEW OR NO CLOUDS BELOW 12,000 FEET WITH NO
SIGNIFICANT WEATHER AND/OR OBSTRUCTION TO VISIBILITY.

MIZ047>049-052>055-059>063-066>070-074>076-081>083-201900-
SOUTHEAST LOWER MICHIGAN

CITY           SKY/WX    TMP DP  RH WIND       PRES   REMARKS
ADRIAN         PTSUNNY   66  29  24 VRB7      30.23F
6HR MIN TEMP:  38; 6HR MAX TEMP:  67;

ALMA           SUNNY     65  31  28 SW5       30.21F
ANN ARBOR      MOSUNNY   67  31  26 S9        30.23F
BAD AXE        SUNNY     65  31  28 SW8       30.22F
6HR MIN TEMP:  39; 6HR MAX TEMP:  65;

CARO           SUNNY     69  25  19 S5        30.20F
DETROIT CITY   MOSUNNY   68  30  24 S7        30.23F
6HR MIN TEMP:  40; 6HR MAX TEMP:  69;

DETROIT        PTSUNNY   67  28  23 VRB5      30.24F
6HR MIN TEMP:  41; 6HR MAX TEMP:  68;

FLINT          SUNNY     70  26  19 S9        30.21F
6HR MIN TEMP:  37; 6HR MAX TEMP:  70;

GROSSE ILE     PTSUNNY   55  37  50 S5        30.24F
HILLSDALE      MOSUNNY   67  26  21 S10       30.22F
HOWELL         SUNNY     67  28  22 S7        30.21F
6HR MIN TEMP:  40; 6HR MAX TEMP:  67;


CITY           SKY/WX    TMP DP  RH WIND       PRES   REMARKS
JACKSON        MOSUNNY   68  28  22 SW8       30.21F
6HR MIN TEMP:  40; 6HR MAX TEMP:  69;

LAMBERTVILLE   PTSUNNY   70  28  21 SW7       30.23F
LANSING        MOSUNNY   69  28  21 S10       30.20F
6HR MIN TEMP:  41; 6HR MAX TEMP:  69;

LAPEER         FAIR      67  26  21 S13       30.21F
MASON          MOSUNNY   69  30  23 SW7       30.21F
MONROE         PTSUNNY   64  37  36 SE6       30.22F
MT. CLEMENS    PTSUNNY   62  42  47 VRB5      30.22F
6HR MIN TEMP:  36; 6HR MAX TEMP:  63;

PONTIAC        PTSUNNY   65  28  24 S12G17    30.22F
6HR MIN TEMP:  40; 6HR MAX TEMP:  66;

PORT HOPE        N/A     49  41  74 E13       30.20F
6HR MIN TEMP:  39; 6HR MAX TEMP:  59;

PORT HURON     MOSUNNY   64  32  29 S15       30.24F
TRI CITIES     SUNNY     66  29  24 SW8       30.21F
6HR MIN TEMP:  40; 6HR MAX TEMP:  67;

TROY           MOSUNNY   66  30  26 S9        30.24F
SAGINAW HB     SUNNY     68  28  22 SW10      30.19F
YPSILANTI      MOSUNNY   70  28  21 VRB6      30.23F
6HR MIN TEMP:  38; 6HR MAX TEMP:  70;

$$
MIZ043>046-050>051-056>058-064>065-071>073-077>080-201900-
SOUTHWEST LOWER MICHIGAN

CITY           SKY/WX    TMP DP  RH WIND       PRES   REMARKS
BATTLE CREEK   MOSUNNY   68  30  24 S9        30.21F
6HR MIN TEMP:  41; 6HR MAX TEMP:  68;

BENTON HARBOR  MOSUNNY   67  36  31 S9        30.19F
6HR MIN TEMP:  42; 6HR MAX TEMP:  68;

BIG RAPIDS     MOSUNNY   68  35  29 SW8G16    30.17F
6HR MIN TEMP:  42; 6HR MAX TEMP:  69;

COLDWATER      SUNNY     67  26  21 S6        30.21F
6HR MIN TEMP:  40; 6HR MAX TEMP:  67;

FREMONT        FAIR      68  32  26 S10G18    30.18F
HOLLAND        MOSUNNY   69  36  29 SW7       30.20F
6HR MIN TEMP:  45; 6HR MAX TEMP:  69;

GRAND RAPIDS   PTSUNNY   68  32  26 S7        30.20F
6HR MIN TEMP:  44; 6HR MAX TEMP:  69;

IONIA          FAIR      67  31  26 W7        30.20F
KALAMAZOO      MOSUNNY   69  31  24 S14       30.21F
6HR MIN TEMP:  41; 6HR MAX TEMP:  69;

LUDINGTON      CLOUDY    63  34  33 S14G20    30.17F
MARSHALL       SUNNY     67  30  24 SE13G18   30.20F
MOUNT PLEASANT SUNNY     65  31  27 SW7       30.19F
6HR MIN TEMP:  37; 6HR MAX TEMP:  65;

MUSKEGON       MOSUNNY   66  32  28 S15G24    30.19F
6HR MIN TEMP:  45; 6HR MAX TEMP:  66;

SOUTH HAVEN    MOSUNNY   69  30  23 CALM      30.19F
$$
MIZ016>042-201900-
NORTHERN LOWER MICHIGAN

CITY           SKY/WX    TMP DP  RH WIND       PRES   REMARKS
ALPENA         CLOUDY    54  35  48 E8        30.18F
6HR MIN TEMP:  38; 6HR MAX TEMP:  58;

BEAVER ISLAND  DRIZZLE   47  38  70 SW12G21   30.13F
6HR MIN TEMP:  40; 6HR MAX TEMP:  47;

BELLAIRE       CLOUDY    62  32  32 S8        30.14F
6HR MIN TEMP:  47; 6HR MAX TEMP:  62;

CADILLAC       PTSUNNY   69  37  30 SW12G18   30.15F
CHARLEVOIX     CLOUDY    53  37  56 S7        30.16F
6HR MIN TEMP:  43; 6HR MAX TEMP:  53;

FRANKFORT      CLOUDY    58  33  39 W12G17    30.15S
GAYLORD        CLOUDY    56  34  43 S7        30.15F
6HR MIN TEMP:  40; 6HR MAX TEMP:  57; 6HR PCP: TRACE;

GRAYLING       CLOUDY    62  27  26 S8        30.17F
6HR MIN TEMP:  39; 6HR MAX TEMP:  62;

HARBOR SPRINGS LGT RAIN  52  42  68 CALM      30.15S
HOUGHTON LAKE  PTSUNNY   66  27  23 W8        30.17F
6HR MIN TEMP:  41; 6HR MAX TEMP:  66;

MANISTEE       PTSUNNY   64  34  32 S14       30.15F
OSCODA         MOSUNNY   64  24  22 S16       30.19F
PELLSTON       LGT RAIN  50  42  74 CALM      30.15F
6HR MIN TEMP:  38; 6HR MAX TEMP:  50; 6HR PCP:  0.12;

ROGERS CITY    CLOUDY    56  33  41 S8        30.17S
TRAVERSE CITY  CLOUDY    64  33  31 SW10      30.13F
6HR MIN TEMP:  48; 6HR MAX TEMP:  64;

$$
MIZ007>008-015-201900-
EASTERN UPPER MICHIGAN

CITY           SKY/WX    TMP DP  RH WIND       PRES   REMARKS
KINROSS        CLOUDY    39  37  93 SE8       30.14F WCI  34
6HR MIN TEMP:  34; 6HR MAX TEMP:  39; 6HR PCP:  0.57;

MACKINAC ISLAN LGT RAIN  42  41  96 SE6       30.14F
6HR MIN TEMP:  36; 6HR MAX TEMP:  42; 6HR PCP:  0.44;

NEWBERRY       CLOUDY    40  35  81 SW15G29   30.11F WCI  32
6HR MIN TEMP:  37; 6HR MAX TEMP:  40; 6HR PCP:  0.01;

S. S. MARIE    LGT RAIN  37  36  96 E5        30.15F FOG     WCI  33
6HR MIN TEMP:  33; 6HR MAX TEMP:  37; 6HR PCP:  0.61;

MUNISING         N/A     50  40  68 S7G17     30.05F
6HR MIN TEMP:  41; 6HR MAX TEMP:  50;

$$
MIZ004>006-011>014-085-201900-
CENTRAL UPPER MICHIGAN

CITY           SKY/WX    TMP DP  RH WIND       PRES   REMARKS
MANISTIQUE     CLOUDY    38  35  88 S10       30.11F WCI  31
ESCANABA       CLOUDY    39  36  87 S12       30.09F WCI  32
6HR MIN TEMP:  37; 6HR MAX TEMP:  39; 6HR PCP:  0.01;

MENOMINEE      CLOUDY    43  39  87 CALM      30.10F
6HR MIN TEMP:  39; 6HR MAX TEMP:  43; 6HR PCP:  0.30;

SAWYER-GWINN   SUNNY     57  46  67 S10       30.04F
$$
MIZ001>003-009>011-084-201900-
WESTERN UPPER MICHIGAN

CITY           SKY/WX    TMP DP  RH WIND       PRES   REMARKS
IRON MOUNTAIN  PTSUNNY   58  46  64 S7        30.03F
6HR MIN TEMP:  42; 6HR MAX TEMP:  59;

HOUGHTON       SUNNY     50  37  61 W12       30.01F
6HR MIN TEMP:  42; 6HR MAX TEMP:  50;

COPPER HARBOR    N/A     41  34  76 N14       30.01S
6HR MIN TEMP:  39; 6HR MAX TEMP:  54;

IRONWOOD       SUNNY     64  41  42 W5        29.98F
6HR MIN TEMP:  43; 6HR MAX TEMP:  64;

$$

ABBREVIATIONS USED IN REMARKS
   TC - TEMPERATURE IN CELSIUS
  WCI - WIND CHILL INDEX
   HX - HEAT INDEX
  VSB - VISIBILITY




USA.gov is the U.S. government's official web portal to all federal, state and local government web resources and services.